Regional Weather Roundup
Issued by NWS

Home | Current Version | Previous Version | Text Only | Print | Product List | Glossary On
Versions: 1 2 3 4 5 6 7 8 9 10 11 12 13 14 15 16 17 18 19 20 21 22 23 24 25 26 27 28 29 30 31 32 33 34 35 36 37 38 39 40 41 42 43 44 45 46 47 48 49 50
000
ASUS43 KMKX 230559
RWRWI

WISCONSIN REGIONAL WEATHER ROUNDUP
NATIONAL WEATHER SERVICE MILWAUKEE/SULLIVAN WI
1200 AM CST TUE JAN 23 2018

NOTE: "FAIR" INDICATES FEW OR NO CLOUDS BELOW 12,000 FEET WITH NO
SIGNIFICANT WEATHER AND/OR OBSTRUCTIONS TO VISIBILITY.

WIZ001-002-006>008-014>016-023>028-230700-
NORTHWEST WISCONSIN

CITY           SKY/WX    TMP DP  RH WIND       PRES   REMARKS
SUPERIOR ARPT  MOCLDY    20  13  74 N10       29.90S WCI   9
ASHLAND        CLOUDY    20  17  88 N20       29.85S WCI   4
6HR MIN TEMP:  20; 6HR MAX TEMP:  24; 6HR PCP:  0.05;

HAYWARD        CLOUDY    22  17  81 N15G28    29.80R WCI   9
6HR MIN TEMP:  22; 6HR MAX TEMP:  25; 6HR PCP: TRACE;

SIREN          CLOUDY    24  17  74 N12       29.83S WCI  13
CUMBERLAND     CLOUDY    25  19  80 N22G28    29.77R WCI  10
RICE LAKE      CLOUDY    24  22  91 N13       29.78S WCI  13
CHETEK         LGT SNOW  24  22  92 N7G16     29.76S WCI  16
LADYSMITH      CLOUDY    24  20  85 N16       29.74S WCI  11
EAU CLAIRE     LGT SNOW  24  22  91 N16G30    29.71S VSB 1   WCI  11
MENOMONIE      LGT SNOW  26  24  90 NW12G21   29.74R WCI  16
NEW RICHMOND     N/A     25  22  87 N18G24    29.79S WCI  12
OSCEOLA        CLOUDY    26  20  79 N15G23    29.84R WCI  13
$$

WIZ003>005-009-010-017-018-230700-
NORTH CENTRAL WISCONSIN

CITY           SKY/WX    TMP DP  RH WIND       PRES   REMARKS
MANITOWISH WTR CLOUDY    20  19  95 N8        29.70R WCI  11
ARBOR VITAE    LGT SNOW  23  20  89 N12G21    29.67S WCI  12
WOODRUFF       LGT SNOW  23  20  89 N12G21    29.67S WCI  12
RHINELANDER    LGT SNOW  23  19  85 N10G18    29.63F FOG     WCI  12
6HR MIN TEMP:  23; 6HR MAX TEMP:  28; 6HR PCP:  0.05;

EAGLE RIVER      N/A     21  19  92 N10G17    29.65S WCI  10
6HR MIN TEMP:  21; 6HR MAX TEMP:  26;

LAND O LAKES   CLOUDY    22  19  89 N9G18     29.68S WCI  11
PHILLIPS       CLOUDY    22  19  87 N16G23    29.69S WCI   8
6HR MIN TEMP:  22; 6HR MAX TEMP:  25; 6HR PCP:  0.01;

TOMAHAWK       LGT SNOW  23  20  88 N8G17     29.65S WCI  14
MEDFORD        LGT SNOW  23  20  88 N14       29.63R WCI  11
MERRILL        LGT SNOW  24  22  89 N15G21    29.62S WCI  12
6HR MIN TEMP:  24; 6HR MAX TEMP:  31;

$$

WIZ029-030-035-036-043>047-230700-
CENTRAL WISCONSIN

CITY           SKY/WX    TMP DP  RH WIND       PRES   REMARKS
WAUSAU         CLOUDY    26  22  84 N14G22    29.58S WCI  14
6HR MIN TEMP:  26; 6HR MAX TEMP:  30; 6HR PCP:  0.02;

MOSINEE        LGT SNOW  28  27  93 N15G21    29.60  WCI  17
MARSHFIELD     CLOUDY    26  22  84 N10       29.60R WCI  16
6HR MIN TEMP:  26; 6HR MAX TEMP:  32; 6HR PCP: TRACE;

STEVENS POINT  CLOUDY    27  25  91 N8G18     29.59R WCI  19
WAUPACA        CLOUDY    32  27  83 N9G16     29.57R WCI  24
WAUTOMA        FLURRIES  30  27  88 N13         N/A  WCI  20
6HR MIN TEMP:  30; 6HR MAX TEMP:  31;

WISC RAPIDS    NOT AVBL
CAMP DOUGLAS   FRZ DRZL  30  30  99 N10       29.59S WCI  21
6HR MIN TEMP:  30; 6HR MAX TEMP:  33; 6HR PCP: TRACE;

$$

WIZ011>013-019>022-031-037>040-048>050-230700-
NORTHEAST WISCONSIN

CITY           SKY/WX    TMP DP  RH WIND       PRES   REMARKS
ANTIGO         CLOUDY    25  22  89 N20G25    29.57F WCI  11
SHAWANO        CLOUDY    31  27  85 N10       29.56S WCI  22
6HR MIN TEMP:  31; 6HR MAX TEMP:  32;

OCONTO         CLOUDY    28  27  93 N8        29.55F WCI  20
STURGEON BAY   MIX PCPN  27  26  96 N22       29.52F FOG     WCI  13
6HR MIN TEMP:  27; 6HR MAX TEMP:  32; 6HR PCP: TRACE;

GREEN BAY      CLOUDY    30  27  88 N22G28    29.53F WCI  17
6HR MIN TEMP:  30; 6HR MAX TEMP:  32;

MANITOWOC      MIX PCPN  31  30  96 N13       29.49S WCI  21
6HR MIN TEMP:  31; 6HR MAX TEMP:  35; 6HR PCP: TRACE;

APPLETON       CLOUDY    30  30 100 N18G24    29.52R WCI  18
CLINTONVILLE   CLOUDY    30  27  86 NE12G21   29.56S WCI  21
OSHKOSH        CLOUDY    30  28  92 N21       29.52R WCI  17
6HR MIN TEMP:  30; 6HR MAX TEMP:  33;

$$

WIZ032>034-041-042-053>061-230700-
SOUTHWEST WISCONSIN

CITY           SKY/WX    TMP DP  RH WIND       PRES   REMARKS
LA CROSSE      FLURRIES  31  28  89 N16G24    29.65R WCI  20
6HR MIN TEMP:  31; 6HR MAX TEMP:  35; 6HR PCP:  0.01;

SPARTA         CLOUDY    30  28  90 N10       29.63R WCI  21
VIROQUA        CLOUDY    31  31 100 N13G18    29.57S WCI  21
6HR MIN TEMP:  31; 6HR MAX TEMP:  32;

BOSCOBEL       CLOUDY    34  50 100 N9        29.58R WCI  27
6HR MIN TEMP:  34; 6HR MAX TEMP:  37;

PRAIRIE DU CHI CLOUDY    33  31  89 N3        29.58R
PLATTEVILLE    CLOUDY    33  33 100 N13       29.53R WCI  23
$$

WIZ056-057-062-063-064-067-068-230700-
SOUTH CENTRAL WISCONSIN

CITY           SKY/WX    TMP DP  RH WIND       PRES   REMARKS
REEDSBURG      LGT SNOW  31  31 100 N7        29.56S WCI  24
BARABOO/DELLS  MIX PCPN  30  29  96 N6        29.55S WCI  24
LONE ROCK      CLOUDY    34  30  86 N12G24    29.55S WCI  25
MINERAL POINT  CLOUDY    32  32 100 N12G17    29.51S FOG     WCI  23
MADISON        LGT SNOW  31  29  92 N14       29.52S FOG     WCI  21
6HR MIN TEMP:  31; 6HR MAX TEMP:  35; 6HR PCP:  0.09;

MIDDLETON      CLOUDY    32  32  99 N12       29.52S WCI  23
WATERTOWN      LGT SNOW  31  31 100 NW5       29.50R WCI  26
MONROE         FLURRIES  32  32 100 N6        29.50R WCI  26
JANESVILLE     LGT RAIN  34  34 100 N6        29.49R WCI  29
$$

WIZ051-052-058>065-066-070>072-230700-
SOUTHEAST WISCONSIN

CITY           SKY/WX    TMP DP  RH WIND       PRES   REMARKS
MILWAUKEE      FLURRIES  35  34  96 NW6       29.46F WCI  30
6HR MIN TEMP:  35; 6HR MAX TEMP:  38; 6HR PCP:  0.13;

WAUKESHA       LGT SNOW  32  32 100 W9        29.48S WCI  24
MILWAUKEE/TIMM MIX PCPN  32  30  93 W5        29.48S WCI  27
RACINE         CLOUDY    35  35 100 W5        29.48R WCI  31
6HR MIN TEMP:  35; 6HR MAX TEMP:  38; 6HR PCP:  0.04;

BURLINGTON     LGT SNOW  32  32  98 NW10      29.47S WCI  24
KENOSHA        LGT RAIN  36  33  89 NW8       29.47R FOG     WCI  30
6HR MIN TEMP:  36; 6HR MAX TEMP:  44; 6HR PCP:  0.04;

FOND DU LAC    CLOUDY    31  28  89 N20G25    29.51F WCI  19
6HR MIN TEMP:  31; 6HR MAX TEMP:  34; 6HR PCP: TRACE;

SHEBOYGAN      FRZ RAIN  32  32 100 N10G25    29.45S WCI  24
6HR MIN TEMP:  32; 6HR MAX TEMP:  36; 6HR PCP:  0.18;

WEST BEND      CLOUDY    32  32 100 N6        29.47R WCI  26
JUNEAU         LGT SNOW  30  29  98 NW13G20   29.50F WCI  20
$$

LSZ147-162-230700-
LAKE SUPERIOR

STATION/POSITION TIME  TEMP    WIND        PRES    WAVE
                       AIR SEA DIR/SP/G            HT/PER
                 (UTC) (F)     (DEG/KT/KT) (MB)    (FT/S)
DEVILS ISLAND    0500   22      30/ 21/ 24 1012.4R
SAXON HARBOR     0540   24      30/ 18/ 25 1010.2R
$$

LMZ867-665-643>646-230700-
LAKE MICHIGAN

STATION/POSITION TIME  TEMP    WIND        PRES    WAVE
                       AIR SEA DIR/SP/G            HT/PER
                 (UTC) (F)     (DEG/KT/KT) (MB)    (FT/S)
NORTHPORT PIER   0540   27      10/  7/ 13 1000.7F
KEWAUNEE LAKESHO 0530   31      10/ 15/ 19  998.3F
SHEBOYGAN LAKESH 0500   33     360/ 29/ 33  997.8F
PORT WASHINGTON  0540   34     280/  6/ 11  999.7R
MILWAUKEE LAKESH 0530   34     340/  4/  4   N/A
KENOSHA   LAKESH 0500   38     290/  9/ 17  997.6
$$

TC  - TEMPERATURE IN CELSIUS
VSB - VISIBILITY IN STATUTE MILES
WCI - WIND CHILL INDEX
HX  - HEAT INDEX




USA.gov is the U.S. government's official web portal to all federal, state and local government web resources and services.